Location: Unspecified
(36.5600°N, 136.6600°E)
Time: 03:38:05
(UTC+09:00)

BlueWalker 3 - Pass Details

Date: 22 June 2024
Orbit: 480 x 491 km, 53.2° (Epoch: 23 July)

Event Time Altitude Azimuth Distance (km) Brightness Sun altitude
Rises 21:12:53 0° 281° (W) 2,538 6.3 -18.8°
Reaches altitude 10° 21:16:18 10° 314° (NW) 1,658 5.8 -19.2°
Maximum altitude 21:17:46 12° 337° (NNW) 1,542 5.5 -19.4°
Drops below altitude 10° 21:19:13 10° 360° (N) 1,653 5.3 -19.6°
Sets 21:22:40 0° 34° (NNE) 2,538 5.8 -20.0°
